START_TIME,STEP,MOV.,H8,t_acc.,H43,t_acc.,M25,t_acc.,H9,t_acc.
1979-07-05 12:00:30.240 ,0,0,0.,12.0,0.,12.0,0.,12.0,0.,12.0
1979-07-05 12:00:42.240 ,0,0,0.,12.0,0.,12.0,0.,12.0,0.,12.0
1979-07-05 12:00:54.240 ,1,0,0.,12.0,0.,12.0,0.,12.0,0.,12.0
1979-07-05 12:01:06.240 ,1,0,0.,12.0,0.,12.0,0.,12.0,0.,12.0
1979-07-05 12:01:18.240 ,1,0,0.,12.0,0.,12.0,0.,12.0,0.,12.0
1979-07-05 12:01:30.240 ,1,0,0.,12.0,0.,12.0,0.,12.0,0.,12.0
1979-07-05 12:01:42.240 ,2,0,0.,12.0,0.,12.0,0.,12.0,0.,12.0
1979-07-05 12:01:54.240 ,2,0,0.,12.0,0.,12.0,0.,12.0,0.,12.0
1979-07-05 12:02:06.240 ,2,0,0.,12.0,0.,12.0,0.,12.0,0.,12.0
1979-07-05 12:02:18.240 ,2,0,0.,12.0,0.,12.0,0.,12.0,0.,12.0
1979-07-05 12:02:30.240 ,3,0,0.,12.0,0.,12.0,0.,12.0,0.,12.0
1979-07-05 12:02:42.240 ,3,0,0.,12.0,0.,12.0,0.,12.0,0.,12.0
1979-07-05 12:02:54.240 ,3,0,0.,12.0,0.,12.0,0.,12.0,0.,12.0
1979-07-05 12:03:06.240 ,3,0,0.,12.0,0.,12.0,0.,12.0,0.,12.0
1979-07-05 12:03:18.240 ,4,0,0.,12.0,0.,12.0,0.,12.0,0.,12.0
1979-07-05 12:03:30.240 ,4,0,0.,12.0,0.,12.0,0.,12.0,0.,12.0
1979-07-05 12:03:42.240 ,4,0,0.,12.0,0.,12.0,0.,12.0,0.,12.0
1979-07-05 12:03:54.240 ,4,0,0.,12.0,0.,12.0,0.,12.0,0.,12.0
1979-07-05 12:04:06.240 ,5,0,0.,12.0,0.,12.0,0.,12.0,0.,12.0
1979-07-05 12:04:18.240 ,5,0,0.,12.0,0.,12.0,0.,12.0,0.,12.0
1979-07-05 12:04:30.240 ,5,0,0.,12.0,0.,12.0,0.,12.0,0.,12.0
1979-07-05 12:04:42.240 ,5,0,0.,12.0,0.,12.0,0.,12.0,0.,12.0
1979-07-05 12:04:54.240 ,6,0,0.,12.0,0.,12.0,0.,12.0,0.,12.0
1979-07-05 12:05:06.240 ,6,0,0.,12.0,0.,12.0,0.,12.0,0.,12.0
1979-07-05 12:05:18.240 ,6,0,0.,12.0,0.,12.0,0.,12.0,0.,12.0
1979-07-05 12:05:30.240 ,6,0,0.,12.0,0.,12.0,0.,12.0,0.,12.0
1979-07-05 12:05:42.240 ,7,0,0.,12.0,0.,12.0,0.,12.0,0.,12.0
1979-07-05 12:05:54.240 ,7,0,0.,12.0,0.,12.0,0.,12.0,0.,12.0
1979-07-05 12:06:06.240 ,7,0,0.,12.0,0.,12.0,0.,12.0,0.,12.0
1979-07-05 12:06:18.240 ,7,0,0.,12.0,0.,12.0,0.,12.0,0.,12.0
1979-07-05 12:06:30.240 ,7,0,0.,12.0,0.,12.0,0.,12.0,0.,12.0
1979-07-05 12:06:42.240 ,7,0,0.,12.0,0.,12.0,0.,12.0,0.,12.0
1979-07-05 12:06:54.240 ,7,0,0.,12.0,0.,12.0,0.,12.0,0.,12.0
1979-07-05 12:07:06.240 ,7,0,0.,12.0,0.,12.0,0.,12.0,0.,12.0
1979-07-05 12:07:18.240 ,6,0,0.,12.0,0.,12.0,0.,12.0,0.,12.0
1979-07-05 12:07:30.240 ,6,0,0.,12.0,0.,12.0,0.,12.0,0.,12.0
1979-07-05 12:07:42.240 ,6,0,0.,12.0,0.,12.0,0.,12.0,0.,12.0
1979-07-05 12:07:54.240 ,6,0,0.,12.0,0.,12.0,0.,12.0,0.,12.0
1979-07-05 12:08:06.240 ,5,0,0.,12.0,0.,12.0,0.,12.0,0.,12.0
1979-07-05 12:08:18.240 ,5,0,0.,12.0,0.,12.0,0.,12.0,0.,12.0
1979-07-05 12:08:30.240 ,5,0,0.,12.0,0.,12.0,0.,12.0,0.,12.0
1979-07-05 12:08:42.240 ,5,0,0.,12.0,0.,12.0,0.,12.0,0.,12.0
1979-07-05 12:08:54.240 ,4,0,0.,12.0,0.,12.0,0.,12.0,0.,12.0
1979-07-05 12:09:06.240 ,4,0,0.,12.0,0.,12.0,0.,12.0,0.,12.0
1979-07-05 12:09:18.240 ,4,0,0.,12.0,0.,12.0,0.,12.0,0.,12.0
1979-07-05 12:09:30.240 ,4,0,0.,12.0,0.,12.0,0.,12.0,0.,12.0
1979-07-05 12:09:42.240 ,3,0,0.,12.0,0.,12.0,0.,12.0,0.,12.0
1979-07-05 12:09:54.240 ,3,0,0.,12.0,0.,12.0,0.,12.0,0.,12.0
1979-07-05 12:10:06.240 ,3,0,0.,12.0,0.,12.0,0.,12.0,0.,12.0
1979-07-05 12:10:18.240 ,3,0,0.,12.0,0.,12.0,0.,12.0,0.,12.0
1979-07-05 12:10:30.240 ,2,0,0.,12.0,0.,12.0,0.,12.0,0.,12.0
1979-07-05 12:10:42.240 ,2,0,0.,12.0,0.,12.0,0.,12.0,0.,12.0
1979-07-05 12:10:54.240 ,2,0,0.,12.0,0.,12.0,0.,12.0,0.,12.0
1979-07-05 12:11:06.240 ,2,0,0.,12.0,0.,12.0,0.,12.0,0.,12.0
1979-07-05 12:11:18.240 ,1,0,0.,12.0,0.,12.0,0.,12.0,0.,12.0
1979-07-05 12:11:30.240 ,1,0,0.,12.0,0.,12.0,0.,12.0,0.,12.0
1979-07-05 12:11:42.240 ,1,0,0.,12.0,0.,12.0,0.,12.0,0.,12.0
1979-07-05 12:11:54.240 ,1,0,0.,12.0,0.,12.0,0.,12.0,0.,12.0
1979-07-05 12:12:06.240 ,0,0,0.,12.0,0.,12.0,0.,12.0,0.,12.0
1979-07-05 12:12:18.240 ,0,0,0.,12.0,0.,12.0,0.,12.0,0.,12.0
1979-07-05 12:12:30.240 ,0,0,0.,12.0,0.,12.0,0.,12.0,0.,12.0
1979-07-05 12:12:42.240 ,0,0,0.,12.0,0.,12.0,0.,12.0,0.,12.0
1979-07-05 12:12:54.240 ,0,0,0.,12.0,0.,12.0,0.,12.0,0.,12.0
1979-07-05 12:13:06.240 ,0,0,0.,12.0,0.,12.0,0.,12.0,0.,12.0
1979-07-05 12:13:18.240 ,0,0,0.,12.0,0.,12.0,0.,12.0,0.,12.0
1979-07-05 12:13:30.240 ,0,0,0.,12.0,0.,12.0,0.,12.0,0.,12.0
1979-07-05 12:13:42.240 ,1,0,0.,12.0,0.,12.0,0.,12.0,0.,12.0
1979-07-05 12:13:54.240 ,1,0,0.,12.0,0.,12.0,0.,12.0,0.,12.0
1979-07-05 12:14:06.240 ,1,0,0.,12.0,0.,12.0,0.,12.0,0.,12.0
1979-07-05 12:14:18.240 ,1,0,0.,12.0,0.,12.0,0.,12.0,0.,12.0
1979-07-05 12:14:30.240 ,2,0,0.,12.0,0.,12.0,0.,12.0,0.,12.0
1979-07-05 12:14:42.240 ,2,0,0.,12.0,0.,12.0,0.,12.0,0.,12.0
1979-07-05 12:14:54.240 ,2,0,0.,12.0,0.,12.0,0.,12.0,0.,12.0
1979-07-05 12:15:06.240 ,2,0,0.,12.0,0.,12.0,0.,12.0,0.,12.0
1979-07-05 12:15:18.240 ,3,0,0.,12.0,0.,12.0,0.,12.0,0.,12.0
1979-07-05 12:15:30.240 ,3,0,0.,12.0,0.,12.0,0.,12.0,0.,12.0
1979-07-05 12:15:42.240 ,3,0,0.,12.0,0.,12.0,0.,12.0,0.,12.0
1979-07-05 12:15:54.240 ,3,0,0.,12.0,0.,12.0,0.,12.0,0.,12.0
1979-07-05 12:16:06.240 ,4,0,0.,12.0,0.,12.0,0.,12.0,0.,12.0
1979-07-05 12:16:18.240 ,4,0,0.,12.0,0.,12.0,0.,12.0,0.,12.0
1979-07-05 12:16:30.240 ,4,0,0.,12.0,0.,12.0,0.,12.0,0.,12.0
1979-07-05 12:16:42.240 ,4,0,0.,12.0,0.,12.0,0.,12.0,0.,12.0
1979-07-05 12:16:54.240 ,5,0,0.,12.0,0.,12.0,0.,12.0,0.,12.0
1979-07-05 12:17:06.240 ,5,0,0.,12.0,0.,12.0,0.,12.0,0.,12.0
1979-07-05 12:17:18.240 ,5,0,0.,12.0,0.,12.0,1.,12.0,0.,12.0
1979-07-05 12:17:30.240 ,5,0,0.,12.0,0.,12.0,0.,12.0,0.,12.0
1979-07-05 12:17:42.240 ,6,0,0.,12.0,0.,12.0,0.,12.0,0.,12.0
1979-07-05 12:17:54.240 ,6,0,0.,12.0,0.,12.0,0.,12.0,0.,12.0
1979-07-05 12:18:06.240 ,6,0,0.,12.0,0.,12.0,0.,12.0,0.,12.0
1979-07-05 12:18:18.240 ,6,0,0.,12.0,0.,12.0,0.,12.0,0.,12.0
1979-07-05 12:18:30.240 ,7,0,0.,12.0,0.,12.0,0.,12.0,0.,12.0
1979-07-05 12:18:42.240 ,7,0,0.,12.0,0.,12.0,0.,12.0,0.,12.0
1979-07-05 12:18:54.240 ,7,0,0.,12.0,0.,12.0,0.,12.0,0.,12.0
1979-07-05 12:19:06.240 ,7,0,0.,12.0,0.,12.0,0.,12.0,0.,12.0
1979-07-05 12:19:18.240 ,3,1,0.,12.0,0.,12.0,0.,12.0,0.,12.0
1979-07-05 12:19:30.240 ,3,1,0.,12.0,0.,12.0,0.,12.0,0.,12.0
1979-07-05 12:19:42.240 ,0,1,0.,12.0,0.,12.0,0.,12.0,0.,12.0
1979-07-05 12:19:54.240 ,0,1,0.,12.0,0.,12.0,0.,12.0,0.,12.0
1979-07-05 12:20:06.240 ,2,1,0.,12.0,0.,12.0,0.,12.0,0.,12.0
1979-07-05 12:20:18.240 ,2,1,,0,,0,,0,,0
1979-07-05 12:20:30.240 ,7,1,0.,12.0,0.,12.0,0.,12.0,0.,12.0
1979-07-05 12:20:42.240 ,7,1,0.,12.0,0.,12.0,0.,12.0,0.,12.0
1979-07-05 12:20:54.240 ,3,1,0.,12.0,0.,12.0,0.,12.0,0.,12.0
1979-07-05 12:21:06.240 ,3,1,0.,12.0,0.,12.0,0.,12.0,0.,12.0
1979-07-05 12:21:18.240 ,0,1,0.,12.0,0.,12.0,0.,12.0,0.,12.0
1979-07-05 12:21:30.240 ,0,1,0.,12.0,0.,12.0,0.,12.0,0.,12.0
1979-07-05 12:21:42.240 ,4,1,0.,12.0,0.,12.0,0.,12.0,0.,12.0
1979-07-05 12:21:54.240 ,4,1,0.,12.0,0.,12.0,0.,12.0,0.,12.0
1979-07-05 12:22:06.240 ,7,1,0.,12.0,0.,12.0,0.,12.0,0.,12.0
1979-07-05 12:22:18.240 ,7,1,0.,12.0,0.,12.0,0.,12.0,0.,12.0
1979-07-05 12:22:30.240 ,3,1,0.,12.0,0.,12.0,0.,12.0,0.,12.0
1979-07-05 12:22:42.240 ,3,1,0.,12.0,0.,12.0,0.,12.0,0.,12.0
1979-07-05 12:22:54.240 ,0,1,0.,12.0,0.,12.0,0.,12.0,0.,12.0
1979-07-05 12:23:06.240 ,0,1,0.,12.0,0.,12.0,0.,12.0,0.,12.0
1979-07-05 12:23:18.240 ,4,1,0.,12.0,0.,12.0,0.,12.0,0.,12.0
1979-07-05 12:23:30.240 ,4,1,0.,12.0,0.,12.0,0.,12.0,0.,12.0
1979-07-05 12:23:42.240 ,7,1,0.,12.0,0.,12.0,0.,12.0,0.,12.0
1979-07-05 12:23:54.240 ,7,1,0.,12.0,0.,12.0,0.,12.0,0.,12.0
1979-07-05 12:24:06.240 ,3,1,0.,12.0,0.,12.0,0.,12.0,0.,12.0
1979-07-05 12:24:18.240 ,3,1,0.,12.0,0.,12.0,0.,12.0,0.,12.0
1979-07-05 12:24:30.240 ,0,1,0.,12.0,0.,12.0,0.,12.0,0.,12.0
1979-07-05 12:24:42.240 ,0,1,0.,12.0,0.,12.0,0.,12.0,0.,12.0
1979-07-05 12:24:54.240 ,4,1,0.,12.0,0.,12.0,0.,12.0,0.,12.0
1979-07-05 12:25:06.240 ,4,1,0.,12.0,0.,12.0,0.,12.0,0.,12.0
1979-07-05 12:25:18.240 ,7,1,0.,12.0,0.,12.0,0.,12.0,0.,12.0
1979-07-05 12:25:30.240 ,7,1,0.,12.0,0.,12.0,0.,12.0,0.,12.0
1979-07-05 12:25:42.240 ,3,1,0.,12.0,0.,12.0,0.,12.0,0.,12.0
1979-07-05 12:25:54.240 ,3,1,0.,12.0,0.,12.0,0.,12.0,0.,12.0
1979-07-05 12:26:06.240 ,0,1,0.,12.0,0.,12.0,0.,12.0,0.,12.0
1979-07-05 12:26:18.240 ,0,1,0.,12.0,0.,12.0,0.,12.0,0.,12.0
1979-07-05 12:26:30.240 ,4,1,0.,12.0,0.,12.0,0.,12.0,0.,12.0
1979-07-05 12:26:42.240 ,4,1,0.,12.0,0.,12.0,0.,12.0,0.,12.0
1979-07-05 12:26:54.240 ,7,1,0.,12.0,0.,12.0,0.,12.0,0.,12.0
1979-07-05 12:27:06.240 ,7,1,0.,12.0,0.,12.0,0.,12.0,0.,12.0
1979-07-05 12:27:18.240 ,3,1,0.,12.0,0.,12.0,0.,12.0,0.,12.0
1979-07-05 12:27:30.240 ,3,1,0.,12.0,0.,12.0,0.,12.0,0.,12.0
1979-07-05 12:27:42.240 ,0,1,0.,12.0,0.,12.0,0.,12.0,0.,12.0
1979-07-05 12:27:54.240 ,0,1,0.,12.0,0.,12.0,0.,12.0,0.,12.0
1979-07-05 12:28:06.240 ,4,1,0.,12.0,0.,12.0,0.,12.0,0.,12.0
1979-07-05 12:28:18.240 ,4,1,0.,12.0,0.,12.0,0.,12.0,0.,12.0
1979-07-05 12:28:30.240 ,7,1,0.,12.0,0.,12.0,0.,12.0,0.,12.0
1979-07-05 12:28:42.240 ,7,1,0.,12.0,0.,12.0,0.,12.0,0.,12.0
1979-07-05 12:28:54.240 ,3,1,0.,12.0,0.,12.0,0.,12.0,0.,12.0
1979-07-05 12:29:06.240 ,3,1,0.,12.0,0.,12.0,0.,12.0,0.,12.0
1979-07-05 12:29:18.240 ,0,1,0.,12.0,0.,12.0,0.,12.0,0.,12.0
1979-07-05 12:29:30.240 ,0,1,0.,12.0,0.,12.0,0.,12.0,0.,12.0
1979-07-05 12:29:42.240 ,0,0,0.,12.0,0.,12.0,0.,12.0,0.,12.0
1979-07-05 12:29:54.240 ,0,0,0.,12.0,0.,12.0,0.,12.0,0.,12.0
1979-07-05 12:30:06.240 ,0,0,0.,12.0,0.,12.0,0.,12.0,0.,12.0
1979-07-05 12:30:18.240 ,0,0,0.,12.0,0.,12.0,0.,12.0,0.,12.0
1979-07-05 12:30:30.240 ,5,0,0.,12.0,0.,12.0,0.,12.0,0.,12.0
1979-07-05 12:30:42.240 ,5,0,0.,12.0,0.,12.0,0.,12.0,0.,12.0
1979-07-05 12:30:54.240 ,5,0,0.,12.0,0.,12.0,0.,12.0,0.,12.0
1979-07-05 12:31:06.240 ,5,0,0.,12.0,0.,12.0,0.,12.0,0.,12.0
1979-07-05 12:31:18.240 ,4,0,0.,12.0,0.,12.0,0.,12.0,0.,12.0
1979-07-05 12:31:30.240 ,4,0,0.,12.0,0.,12.0,0.,12.0,0.,12.0
1979-07-05 12:31:42.240 ,4,0,0.,12.0,0.,12.0,0.,12.0,0.,12.0
1979-07-05 12:31:54.240 ,4,0,0.,12.0,0.,12.0,0.,12.0,0.,12.0
1979-07-05 12:32:06.240 ,3,0,0.,12.0,0.,12.0,0.,12.0,0.,12.0
1979-07-05 12:32:18.240 ,3,0,0.,12.0,0.,12.0,0.,12.0,0.,12.0
1979-07-05 12:32:30.240 ,3,0,0.,12.0,0.,12.0,0.,12.0,0.,12.0
1979-07-05 12:32:42.240 ,3,0,0.,12.0,0.,12.0,0.,12.0,0.,12.0
1979-07-05 12:32:54.240 ,2,0,0.,12.0,0.,12.0,0.,12.0,0.,12.0
1979-07-05 12:33:06.240 ,2,0,0.,12.0,0.,12.0,0.,12.0,0.,12.0
1979-07-05 12:33:18.240 ,2,0,0.,12.0,0.,12.0,0.,12.0,0.,12.0
1979-07-05 12:33:30.240 ,2,0,0.,12.0,0.,12.0,0.,12.0,0.,12.0
1979-07-05 12:33:42.240 ,1,0,0.,12.0,0.,12.0,0.,12.0,0.,12.0
1979-07-05 12:33:54.240 ,1,0,0.,12.0,0.,12.0,0.,12.0,0.,12.0
1979-07-05 12:34:06.240 ,1,0,0.,12.0,0.,12.0,0.,12.0,0.,12.0
1979-07-05 12:34:18.240 ,1,0,0.,12.0,0.,12.0,0.,12.0,0.,12.0
1979-07-05 12:34:30.240 ,0,0,0.,12.0,0.,12.0,0.,12.0,0.,12.0
1979-07-05 12:34:42.240 ,0,0,0.,12.0,0.,12.0,0.,12.0,0.,12.0
1979-07-05 12:34:54.240 ,0,0,0.,12.0,0.,12.0,0.,12.0,0.,12.0
1979-07-05 12:35:06.240 ,0,0,0.,12.0,0.,12.0,0.,12.0,0.,12.0
1979-07-05 12:35:18.240 ,0,0,0.,12.0,0.,12.0,0.,12.0,0.,12.0
1979-07-05 12:35:30.240 ,0,0,0.,12.0,0.,12.0,0.,12.0,0.,12.0
1979-07-05 12:35:42.240 ,0,0,0.,12.0,0.,12.0,0.,12.0,0.,12.0
1979-07-05 12:35:54.240 ,0,0,0.,12.0,0.,12.0,0.,12.0,0.,12.0
1979-07-05 12:36:06.240 ,1,0,0.,12.0,0.,12.0,0.,12.0,0.,12.0
1979-07-05 12:36:18.240 ,1,0,0.,12.0,0.,12.0,0.,12.0,0.,12.0
1979-07-05 12:36:30.240 ,1,0,0.,12.0,0.,12.0,0.,12.0,0.,12.0
1979-07-05 12:36:42.240 ,1,0,0.,12.0,0.,12.0,0.,12.0,0.,12.0
1979-07-05 12:36:54.240 ,2,0,0.,12.0,0.,12.0,0.,12.0,0.,12.0
1979-07-05 12:37:06.240 ,2,0,0.,12.0,0.,12.0,0.,12.0,0.,12.0
1979-07-05 12:37:18.240 ,2,0,0.,12.0,0.,12.0,0.,12.0,0.,12.0
1979-07-05 12:37:30.240 ,2,0,0.,12.0,0.,12.0,0.,12.0,0.,12.0
1979-07-05 12:37:42.240 ,3,0,0.,12.0,0.,12.0,0.,12.0,0.,12.0
1979-07-05 12:37:54.240 ,3,0,0.,12.0,0.,12.0,0.,12.0,0.,12.0
1979-07-05 12:38:06.240 ,3,0,0.,12.0,0.,12.0,0.,12.0,0.,12.0
1979-07-05 12:38:18.240 ,3,0,0.,12.0,0.,12.0,0.,12.0,0.,12.0
1979-07-05 12:38:30.240 ,4,0,0.,12.0,0.,12.0,0.,12.0,0.,12.0
1979-07-05 12:38:42.240 ,4,0,0.,12.0,0.,12.0,0.,12.0,0.,12.0
1979-07-05 12:38:54.240 ,4,0,0.,12.0,0.,12.0,0.,12.0,0.,12.0
1979-07-05 12:39:06.240 ,4,0,0.,12.0,0.,12.0,0.,12.0,0.,12.0
1979-07-05 12:39:18.240 ,5,0,0.,12.0,0.,12.0,0.,12.0,0.,12.0
1979-07-05 12:39:30.240 ,5,0,0.,12.0,0.,12.0,0.,12.0,0.,12.0
1979-07-05 12:39:42.240 ,5,0,0.,12.0,0.,12.0,0.,12.0,0.,12.0
1979-07-05 12:39:54.240 ,5,0,0.,12.0,0.,12.0,0.,12.0,0.,12.0
1979-07-05 12:40:06.240 ,6,0,0.,12.0,0.,12.0,0.,12.0,0.,12.0
1979-07-05 12:40:18.240 ,6,0,0.,12.0,0.,12.0,0.,12.0,0.,12.0
1979-07-05 12:40:30.240 ,6,0,0.,12.0,0.,12.0,0.,12.0,0.,12.0
1979-07-05 12:40:42.240 ,6,0,0.,12.0,0.,12.0,0.,12.0,0.,12.0
1979-07-05 12:40:54.240 ,7,0,0.,12.0,0.,12.0,0.,12.0,0.,12.0
1979-07-05 12:41:06.240 ,7,0,0.,12.0,0.,12.0,0.,12.0,0.,12.0
1979-07-05 12:41:18.240 ,7,0,0.,12.0,0.,12.0,0.,12.0,0.,12.0
1979-07-05 12:41:30.240 ,7,0,0.,12.0,0.,12.0,0.,12.0,0.,12.0
1979-07-05 12:41:42.240 ,7,0,0.,12.0,0.,12.0,0.,12.0,0.,12.0
1979-07-05 12:41:54.240 ,7,0,0.,12.0,0.,12.0,0.,12.0,0.,12.0
1979-07-05 12:42:06.240 ,7,0,0.,12.0,0.,12.0,0.,12.0,0.,12.0
1979-07-05 12:42:18.240 ,7,0,0.,12.0,0.,12.0,0.,12.0,0.,12.0
1979-07-05 12:43:18.240 ,0,0,0.,12.0,0.,12.0,0.,12.0,0.,12.0
1979-07-05 12:43:30.240 ,0,0,0.,12.0,0.,12.0,0.,12.0,0.,12.0
1979-07-05 12:43:42.240 ,0,0,0.,12.0,0.,12.0,0.,12.0,0.,12.0
1979-07-05 12:43:54.240 ,0,0,0.,12.0,0.,12.0,0.,12.0,0.,12.0
1979-07-05 12:44:54.240 ,0,0,0.,12.0,0.,12.0,0.,12.0,0.,12.0
1979-07-05 12:45:06.240 ,0,0,0.,12.0,0.,12.0,0.,12.0,0.,12.0
1979-07-05 12:45:18.240 ,0,0,0.,12.0,0.,12.0,0.,12.0,0.,12.0
1979-07-05 12:45:30.240 ,0,0,0.,12.0,0.,12.0,0.,12.0,0.,12.0
1979-07-05 12:45:42.240 ,2,0,0.,12.0,0.,12.0,0.,12.0,0.,12.0
1979-07-05 12:45:54.240 ,2,0,0.,12.0,0.,12.0,0.,12.0,0.,12.0
1979-07-05 12:46:06.240 ,2,0,0.,12.0,0.,12.0,0.,12.0,0.,12.0
1979-07-05 12:46:18.240 ,2,0,0.,12.0,0.,12.0,0.,12.0,0.,12.0
1979-07-05 12:46:30.240 ,1,0,0.,12.0,0.,12.0,0.,12.0,0.,12.0
1979-07-05 12:46:42.240 ,1,0,0.,12.0,0.,12.0,0.,12.0,0.,12.0
1979-07-05 12:46:54.240 ,1,0,0.,12.0,0.,12.0,0.,12.0,0.,12.0
1979-07-05 12:47:06.240 ,1,0,0.,12.0,0.,12.0,0.,12.0,0.,12.0
1979-07-05 12:47:18.240 ,0,0,0.,12.0,0.,12.0,0.,12.0,0.,12.0
1979-07-05 12:47:30.240 ,0,0,0.,12.0,0.,12.0,0.,12.0,0.,12.0
1979-07-05 12:47:42.240 ,0,0,0.,12.0,0.,12.0,0.,12.0,0.,12.0
1979-07-05 12:47:54.240 ,0,0,0.,12.0,0.,12.0,0.,12.0,0.,12.0
1979-07-05 12:48:06.240 ,0,0,0.,12.0,0.,12.0,0.,12.0,0.,12.0
1979-07-05 12:48:18.240 ,0,0,0.,12.0,0.,12.0,0.,12.0,0.,12.0
1979-07-05 12:48:30.240 ,0,0,0.,12.0,0.,12.0,0.,12.0,0.,12.0
1979-07-05 12:48:42.240 ,0,0,0.,12.0,0.,12.0,0.,12.0,0.,12.0
1979-07-05 12:48:54.240 ,1,0,0.,12.0,0.,12.0,0.,12.0,0.,12.0
1979-07-05 12:49:06.240 ,1,0,0.,12.0,0.,12.0,0.,12.0,0.,12.0
1979-07-05 12:49:18.240 ,1,0,0.,12.0,0.,12.0,0.,12.0,0.,12.0
1979-07-05 12:49:30.240 ,1,0,0.,12.0,0.,12.0,0.,12.0,0.,12.0
1979-07-05 12:49:42.240 ,2,0,0.,12.0,0.,12.0,0.,12.0,0.,12.0
1979-07-05 12:49:54.240 ,2,0,0.,12.0,0.,12.0,0.,12.0,0.,12.0
1979-07-05 12:50:06.240 ,2,0,0.,12.0,0.,12.0,0.,12.0,0.,12.0
1979-07-05 12:50:18.240 ,2,0,0.,12.0,0.,12.0,0.,12.0,0.,12.0
1979-07-05 12:50:30.240 ,3,0,0.,12.0,0.,12.0,0.,12.0,0.,12.0
1979-07-05 12:50:42.240 ,3,0,0.,12.0,0.,12.0,0.,12.0,0.,12.0
1979-07-05 12:50:54.240 ,3,0,0.,12.0,0.,12.0,0.,12.0,0.,12.0
1979-07-05 12:51:06.240 ,3,0,0.,12.0,0.,12.0,0.,12.0,0.,12.0
1979-07-05 12:51:18.240 ,4,0,0.,12.0,0.,12.0,0.,12.0,0.,12.0
1979-07-05 12:51:30.240 ,4,0,0.,12.0,0.,12.0,0.,12.0,0.,12.0
1979-07-05 12:51:42.240 ,4,0,0.,12.0,0.,12.0,0.,12.0,0.,12.0
1979-07-05 12:51:54.240 ,4,0,0.,12.0,0.,12.0,0.,12.0,0.,12.0
1979-07-05 12:52:06.240 ,5,0,0.,12.0,0.,12.0,0.,12.0,0.,12.0
1979-07-05 12:52:18.240 ,5,0,0.,12.0,0.,12.0,0.,12.0,0.,12.0
1979-07-05 12:52:30.240 ,5,0,0.,12.0,0.,12.0,0.,12.0,0.,12.0
1979-07-05 12:52:42.240 ,5,0,0.,12.0,0.,12.0,0.,12.0,0.,12.0
1979-07-05 12:52:54.240 ,6,0,0.,12.0,0.,12.0,0.,12.0,0.,12.0
1979-07-05 12:53:06.240 ,6,0,0.,12.0,0.,12.0,0.,12.0,0.,12.0
1979-07-05 12:53:18.240 ,6,0,0.,12.0,0.,12.0,0.,12.0,0.,12.0
1979-07-05 12:53:30.240 ,6,0,0.,12.0,0.,12.0,0.,12.0,0.,12.0
1979-07-05 12:53:42.240 ,7,0,0.,12.0,0.,12.0,0.,12.0,0.,12.0
1979-07-05 12:53:54.240 ,7,0,0.,12.0,0.,12.0,0.,12.0,0.,12.0
1979-07-05 12:54:06.240 ,7,0,0.,12.0,0.,12.0,0.,12.0,0.,12.0
1979-07-05 12:54:18.240 ,7,0,0.,12.0,0.,12.0,0.,12.0,0.,12.0
1979-07-05 12:54:30.240 ,7,0,0.,12.0,0.,12.0,0.,12.0,0.,12.0
1979-07-05 12:54:42.240 ,7,0,0.,12.0,0.,12.0,0.,12.0,0.,12.0
1979-07-05 12:54:54.240 ,7,0,0.,12.0,0.,12.0,0.,12.0,0.,12.0
1979-07-05 12:55:06.240 ,7,0,0.,12.0,0.,12.0,0.,12.0,0.,12.0
1979-07-05 12:55:18.240 ,6,0,0.,12.0,0.,12.0,0.,12.0,0.,12.0
1979-07-05 12:55:30.240 ,6,0,0.,12.0,0.,12.0,0.,12.0,0.,12.0
1979-07-05 12:55:42.240 ,6,0,0.,12.0,0.,12.0,0.,12.0,0.,12.0
1979-07-05 12:55:54.240 ,6,0,0.,12.0,0.,12.0,0.,12.0,0.,12.0
1979-07-05 12:56:06.240 ,5,0,0.,12.0,0.,12.0,0.,12.0,0.,12.0
1979-07-05 12:56:18.240 ,5,0,0.,12.0,0.,12.0,0.,12.0,0.,12.0
1979-07-05 12:56:30.240 ,5,0,0.,12.0,0.,12.0,0.,12.0,0.,12.0
1979-07-05 12:56:42.240 ,5,0,0.,12.0,0.,12.0,0.,12.0,0.,12.0
1979-07-05 12:56:54.240 ,4,0,0.,12.0,0.,12.0,0.,12.0,0.,12.0
1979-07-05 12:57:06.240 ,4,0,0.,12.0,0.,12.0,0.,12.0,0.,12.0
1979-07-05 12:57:18.240 ,4,0,0.,12.0,0.,12.0,0.,12.0,0.,12.0
1979-07-05 12:57:30.240 ,4,0,0.,12.0,0.,12.0,0.,12.0,0.,12.0
1979-07-05 12:57:42.240 ,3,0,0.,12.0,0.,12.0,0.,12.0,0.,12.0
1979-07-05 12:57:54.240 ,3,0,0.,12.0,0.,12.0,0.,12.0,0.,12.0
1979-07-05 12:58:06.240 ,3,0,0.,12.0,0.,12.0,0.,12.0,0.,12.0
1979-07-05 12:58:18.240 ,3,0,0.,12.0,0.,12.0,0.,12.0,0.,12.0
1979-07-05 12:58:30.240 ,2,0,0.,12.0,0.,12.0,0.,12.0,0.,12.0
1979-07-05 12:58:42.240 ,2,0,0.,12.0,0.,12.0,0.,12.0,0.,12.0
1979-07-05 12:58:54.240 ,2,0,0.,12.0,0.,12.0,0.,12.0,0.,12.0
1979-07-05 12:59:06.240 ,2,0,0.,12.0,0.,12.0,0.,12.0,0.,12.0
1979-07-05 12:59:18.240 ,1,0,0.,12.0,0.,12.0,0.,12.0,0.,12.0
1979-07-05 12:59:30.240 ,1,0,0.,12.0,0.,12.0,0.,12.0,0.,12.0
1979-07-05 12:59:42.240 ,1,0,0.,12.0,0.,12.0,0.,12.0,0.,12.0
1979-07-05 12:59:54.240 ,1,0,0.,12.0,0.,12.0,0.,12.0,0.,12.0
1979-07-05 13:00:06.240 ,0,0,0.,12.0,0.,12.0,0.,12.0,0.,12.0
1979-07-05 13:00:18.240 ,0,0,0.,12.0,0.,12.0,0.,12.0,0.,12.0
1979-07-05 13:00:30.240 ,0,0,0.,12.0,0.,12.0,0.,12.0,0.,12.0
1979-07-05 13:00:42.240 ,0,0,0.,12.0,0.,12.0,0.,12.0,0.,12.0
1979-07-05 13:00:54.240 ,0,0,0.,12.0,0.,12.0,0.,12.0,0.,12.0
1979-07-05 13:01:06.240 ,0,0,0.,12.0,0.,12.0,0.,12.0,0.,12.0
1979-07-05 13:01:18.240 ,0,0,0.,12.0,0.,12.0,0.,12.0,0.,12.0
1979-07-05 13:01:30.240 ,0,0,0.,12.0,0.,12.0,0.,12.0,0.,12.0
1979-07-05 13:01:42.240 ,1,0,0.,12.0,0.,12.0,0.,12.0,0.,12.0
1979-07-05 13:01:54.240 ,1,0,0.,12.0,0.,12.0,0.,12.0,0.,12.0
1979-07-05 13:02:06.240 ,1,0,0.,12.0,0.,12.0,0.,12.0,0.,12.0
1979-07-05 13:02:18.240 ,1,0,0.,12.0,0.,12.0,0.,12.0,0.,12.0
1979-07-05 13:02:30.240 ,2,0,0.,12.0,0.,12.0,0.,12.0,0.,12.0
1979-07-05 13:02:42.240 ,2,0,0.,12.0,0.,12.0,0.,12.0,0.,12.0
1979-07-05 13:02:54.240 ,2,0,0.,12.0,0.,12.0,0.,12.0,0.,12.0
1979-07-05 13:03:06.240 ,2,0,0.,12.0,0.,12.0,0.,12.0,0.,12.0
1979-07-05 13:03:18.240 ,3,0,0.,12.0,0.,12.0,0.,12.0,0.,12.0
1979-07-05 13:03:30.240 ,3,0,0.,12.0,0.,12.0,0.,12.0,0.,12.0
1979-07-05 13:03:42.240 ,3,0,0.,12.0,0.,12.0,0.,12.0,0.,12.0
1979-07-05 13:03:54.240 ,3,0,0.,12.0,0.,12.0,0.,12.0,0.,12.0
1979-07-05 13:04:06.240 ,4,0,0.,12.0,0.,12.0,0.,12.0,0.,12.0
1979-07-05 13:04:18.240 ,4,0,0.,12.0,0.,12.0,0.,12.0,0.,12.0
1979-07-05 13:04:30.240 ,4,0,0.,12.0,0.,12.0,0.,12.0,0.,12.0
1979-07-05 13:04:42.240 ,4,0,0.,12.0,0.,12.0,0.,12.0,0.,12.0
1979-07-05 13:04:54.240 ,5,0,0.,12.0,0.,12.0,0.,12.0,0.,12.0
1979-07-05 13:05:06.240 ,5,0,0.,12.0,0.,12.0,0.,12.0,0.,12.0
1979-07-05 13:05:18.240 ,5,0,0.,12.0,0.,12.0,0.,12.0,0.,12.0
1979-07-05 13:05:30.240 ,5,0,0.,12.0,0.,12.0,0.,12.0,0.,12.0
1979-07-05 13:05:42.240 ,6,0,0.,12.0,0.,12.0,0.,12.0,0.,12.0
1979-07-05 13:05:54.240 ,6,0,0.,12.0,0.,12.0,0.,12.0,0.,12.0
1979-07-05 13:06:06.240 ,6,0,0.,12.0,0.,12.0,0.,12.0,0.,12.0
1979-07-05 13:06:18.240 ,6,0,0.,12.0,0.,12.0,0.,12.0,0.,12.0
1979-07-05 13:06:30.240 ,7,0,0.,12.0,0.,12.0,0.,12.0,0.,12.0
1979-07-05 13:06:42.240 ,7,0,0.,12.0,0.,12.0,0.,12.0,0.,12.0
1979-07-05 13:06:54.240 ,7,0,0.,12.0,0.,12.0,0.,12.0,0.,12.0
1979-07-05 13:07:06.240 ,7,0,0.,12.0,0.,12.0,0.,12.0,0.,12.0
1979-07-05 13:07:18.240 ,3,1,0.,12.0,0.,12.0,0.,12.0,0.,12.0
1979-07-05 13:07:30.240 ,3,1,0.,12.0,0.,12.0,0.,12.0,0.,12.0
1979-07-05 13:07:42.240 ,0,1,0.,12.0,0.,12.0,0.,12.0,0.,12.0
1979-07-05 13:07:54.240 ,0,1,0.,12.0,0.,12.0,0.,12.0,0.,12.0
1979-07-05 13:08:06.240 ,4,1,0.,12.0,0.,12.0,0.,12.0,0.,12.0
1979-07-05 13:08:18.240 ,4,1,0.,12.0,0.,12.0,0.,12.0,0.,12.0
1979-07-05 13:08:30.240 ,7,1,0.,12.0,0.,12.0,0.,12.0,0.,12.0
1979-07-05 13:08:42.240 ,7,1,0.,12.0,0.,12.0,0.,12.0,0.,12.0
1979-07-05 13:08:54.240 ,3,1,0.,12.0,0.,12.0,0.,12.0,0.,12.0
1979-07-05 13:09:06.240 ,3,1,0.,12.0,0.,12.0,0.,12.0,0.,12.0
1979-07-05 13:09:18.240 ,0,1,0.,12.0,0.,12.0,0.,12.0,0.,12.0
1979-07-05 13:09:30.240 ,0,1,0.,12.0,0.,12.0,0.,12.0,0.,12.0
1979-07-05 13:09:42.240 ,4,1,0.,12.0,0.,12.0,0.,12.0,0.,12.0
1979-07-05 13:09:54.240 ,4,1,0.,12.0,0.,12.0,0.,12.0,0.,12.0
1979-07-05 13:10:06.240 ,7,1,0.,12.0,0.,12.0,0.,12.0,0.,12.0
1979-07-05 13:10:18.240 ,7,1,0.,12.0,0.,12.0,0.,12.0,0.,12.0
1979-07-05 13:10:30.240 ,3,1,0.,12.0,0.,12.0,0.,12.0,0.,12.0
1979-07-05 13:10:42.240 ,3,1,0.,12.0,0.,12.0,0.,12.0,0.,12.0
1979-07-05 13:10:54.240 ,0,1,0.,12.0,0.,12.0,0.,12.0,0.,12.0
1979-07-05 13:11:06.240 ,0,1,0.,12.0,0.,12.0,0.,12.0,0.,12.0
1979-07-05 13:11:18.240 ,4,1,0.,12.0,0.,12.0,0.,12.0,0.,12.0
1979-07-05 13:11:30.240 ,4,1,0.,12.0,0.,12.0,0.,12.0,0.,12.0
1979-07-05 13:11:42.240 ,7,1,0.,12.0,0.,12.0,0.,12.0,0.,12.0
1979-07-05 13:11:54.240 ,7,1,0.,12.0,0.,12.0,0.,12.0,0.,12.0
1979-07-05 13:12:06.240 ,3,1,0.,12.0,0.,12.0,0.,12.0,0.,12.0
1979-07-05 13:12:18.240 ,3,1,0.,12.0,0.,12.0,0.,12.0,0.,12.0
1979-07-05 13:12:30.240 ,0,1,0.,12.0,0.,12.0,0.,12.0,0.,12.0
1979-07-05 13:12:42.240 ,0,1,0.,12.0,0.,12.0,0.,12.0,0.,12.0
1979-07-05 13:12:54.240 ,0,0,0.,12.0,0.,12.0,0.,12.0,0.,12.0
1979-07-05 13:13:06.240 ,0,0,0.,12.0,0.,12.0,0.,12.0,0.,12.0
1979-07-05 13:13:18.240 ,7,1,0.,12.0,0.,12.0,0.,12.0,0.,12.0
1979-07-05 13:13:30.240 ,7,1,0.,12.0,0.,12.0,0.,12.0,0.,12.0
1979-07-05 13:13:42.240 ,3,1,0.,12.0,0.,12.0,0.,12.0,0.,12.0
1979-07-05 13:13:54.240 ,3,1,0.,12.0,0.,12.0,0.,12.0,0.,12.0
1979-07-05 13:14:06.240 ,0,1,0.,12.0,0.,12.0,0.,12.0,0.,12.0
1979-07-05 13:14:18.240 ,0,1,0.,12.0,0.,12.0,0.,12.0,0.,12.0
1979-07-05 13:14:30.240 ,4,1,0.,12.0,0.,12.0,0.,12.0,0.,12.0
1979-07-05 13:14:42.240 ,4,1,0.,12.0,0.,12.0,0.,12.0,0.,12.0
1979-07-05 13:14:54.240 ,7,1,0.,12.0,0.,12.0,0.,12.0,0.,12.0
1979-07-05 13:15:06.240 ,7,1,0.,12.0,0.,12.0,0.,12.0,0.,12.0
1979-07-05 13:15:18.240 ,3,1,0.,12.0,0.,12.0,0.,12.0,0.,12.0
1979-07-05 13:15:30.240 ,3,1,0.,12.0,0.,12.0,0.,12.0,0.,12.0
1979-07-05 13:15:42.240 ,0,1,0.,12.0,0.,12.0,0.,12.0,0.,12.0
1979-07-05 13:15:54.240 ,0,1,0.,12.0,0.,12.0,0.,12.0,0.,12.0
1979-07-05 13:16:06.240 ,4,1,0.,12.0,0.,12.0,0.,12.0,0.,12.0
1979-07-05 13:16:18.240 ,4,1,0.,12.0,0.,12.0,0.,12.0,0.,12.0
1979-07-05 13:16:30.240 ,7,1,0.,12.0,0.,12.0,0.,12.0,0.,12.0
1979-07-05 13:16:42.240 ,7,1,0.,12.0,0.,12.0,0.,12.0,0.,12.0
1979-07-05 13:16:54.240 ,3,1,0.,12.0,0.,12.0,0.,12.0,0.,12.0
1979-07-05 13:17:06.240 ,3,1,0.,12.0,0.,12.0,0.,12.0,0.,12.0
1979-07-05 13:17:18.240 ,0,1,0.,12.0,0.,12.0,0.,12.0,0.,12.0
1979-07-05 13:17:30.240 ,0,1,0.,12.0,0.,12.0,0.,12.0,0.,12.0
1979-07-05 13:17:42.240 ,0,0,0.,12.0,0.,12.0,0.,12.0,0.,12.0
1979-07-05 13:17:54.240 ,0,0,0.,12.0,0.,12.0,0.,12.0,0.,12.0
1979-07-05 13:18:06.240 ,0,0,0.,12.0,0.,12.0,0.,12.0,0.,12.0
1979-07-05 13:18:18.240 ,0,0,0.,12.0,0.,12.0,0.,12.0,0.,12.0
1979-07-05 13:18:30.240 ,5,0,0.,12.0,0.,12.0,0.,12.0,0.,12.0
1979-07-05 13:18:42.240 ,5,0,0.,12.0,0.,12.0,0.,12.0,0.,12.0
1979-07-05 13:18:54.240 ,5,0,0.,12.0,0.,12.0,0.,12.0,0.,12.0
1979-07-05 13:19:06.240 ,5,0,0.,12.0,0.,12.0,0.,12.0,0.,12.0